Regional Weather Roundup
Issued by NWS

Home | Current Version | Previous Version | Graphics & Text | Print | Product List | Glossary Off
Versions: 1 2 3 4 5 6 7 8 9 10 11 12 13 14 15 16 17 18 19 20 21 22 23 24 25 26 27 28 29 30 31 32 33 34 35 36 37 38 39 40 41 42 43 44 45 46 47 48 49 50

000
ASUS43 KDMX 222107
RWRIA

WEATHER ROUNDUP FOR IOWA
NATIONAL WEATHER SERVICE DES MOINES IA
400 PM CDT FRI MAY 22 2015

NOTE: "FAIR" INDICATES FEW OR NO CLOUDS BELOW 12,000 FEET WITH NO
SIGNIFICANT WEATHER AND/OR OBSTRUCTIONS TO VISIBILITY.

* - THESE STATIONS ARE NOT NWS STATIONS...THUS NOT UNDER NWS
QUALITY CONTROL.  THEY ALSO DO NOT REPORT WEATHER SUCH
AS PRECIPITATION OR FOG.

IAZ001>003-012>014-020>022-031>034-043>046-222200-
   NORTHWEST IOWA

CITY           SKY/WX    TMP DP  RH WIND       PRES   REMARKS
CARROLL *      SUNNY     73  37  27 CALM      30.19F
CHEROKEE *     CLOUDY    72  41  33 CALM      30.18F
DENISON *      SUNNY     72  41  33 SW10G17   30.19S
LE MARS *      SUNNY     73  39  29 SW16      30.19S
ORANGE CITY *  MOSUNNY   72  36  26 S7        30.19S
SHELDON *      SUNNY     73  34  23 S10       30.17F
SIOUX CITY     CLOUDY    72  38  29 SW14      30.20S
SPENCER        CLOUDY    73  40  30 SE6       30.19F
STORM LAKE *   SUNNY     73  30  20 S7G14     30.20S
$$

IAZ055>058-069>071-079>083-090>094-222200-
   SOUTHWEST IOWA

CITY           SKY/WX    TMP DP  RH WIND       PRES   REMARKS
ATLANTIC *     SUNNY     70  41  35 S12       30.22S
AUDUBON *      SUNNY     72  43  35 S9        30.22S
CLARINDA *     PTSUNNY   63  52  67 SW9       30.26S
COUNCIL BLFS * LGT RAIN  59  48  67 S9G24     30.26R
CRESTON *      SUNNY     68  48  49 SW8       30.23
HARLAN  *      SUNNY     72  39  30 SW15      30.24S
LAMONI         CLOUDY    70  49  47 SW8       30.23S
RED OAK *      SUNNY     63  55  77 SW7       30.24S
SHENANDOAH *   PTSUNNY   64  52  63 E5        30.24F
$$

IAZ047>049-059>061-072>074-084-222200-
   CENTRAL IOWA

CITY           SKY/WX    TMP DP  RH WIND       PRES   REMARKS
AMES           CLOUDY    75  37  25 CALM      30.19F
ANKENY *       SUNNY     73  41  31 NE3       30.19F
CHARITON *     SUNNY     73  45  35 SW8       30.21S
DES MOINES     CLOUDY    74  36  25 S3        30.20F
GRINNELL*      CLOUDY    75  34  22 W5        30.20F
KNOXVILLE *    SUNNY     75  36  23 SW6       30.19S
MARSHALLTOWN   CLOUDY    73  34  23 S6        30.19S
PELLA *        CLOUDY    75  43  31 CALM      30.21F
PERRY *          N/A     73  34  23 W5        30.20S
$$

IAZ004>006-015-016-023>025-035-036-222200-
   NORTH CENTRAL IOWA

CITY           SKY/WX    TMP DP  RH WIND       PRES   REMARKS
ALGONA *       SUNNY     72  36  26 SE6       30.20S
CLARION *      SUNNY     73  30  20 VRB6G12   30.19F
ESTHERVILLE    CLOUDY    72  33  24 NW8       30.18F
FORT DODGE *   CLOUDY    72  41  33 CALM      30.21S
MASON CITY     CLOUDY    73  36  25 W3        30.20F
FOREST CITY *  SUNNY     70  39  32 N3        30.19F
IOWA FALLS *     N/A     73  34  23 S3        30.20F
$$

IAZ007>011-017>019-026>030-037>042-050>054-066-222200-
   NORTHEAST IOWA

CITY           SKY/WX    TMP DP  RH WIND       PRES   REMARKS
CEDAR RAPIDS   CLOUDY    73  38  27 SE7       30.19S
CHARLES CITY * SUNNY     73  30  20 VRB3      30.20S
CLINTON *      CLOUDY    73  43  33 CALM      30.22S
DECORAH *      SUNNY     72  32  23 VRB5      30.19F
DUBUQUE        PTSUNNY   73  45  36 NE3       30.21S
MONTICELLO *   SUNNY     73  34  23 NE3       30.20R
OELWEIN *      SUNNY     73  36  25 SW10      30.20S
WATERLOO       CLOUDY    75  34  22 CALM      30.19S
$$

IAZ064-065-067-068-078-222200-
   EAST CENTRAL IOWA

CITY           SKY/WX    TMP DP  RH WIND       PRES   REMARKS
DAVENPORT      CLOUDY    76  31  19 S6        30.20S
IOWA CITY      CLOUDY    74  34  23 CALM      30.21S
MT. PLEASANT * CLOUDY    75  39  27 W5        30.20F
MUSCATINE *    SUNNY     77  37  24 SW5       30.20S
QUAD CITIES    CLOUDY    76  37  24 CALM      30.19S
$$

IAZ062-063-075>077-085>089-095>099-222200-
   SOUTHEAST IOWA

CITY           SKY/WX    TMP DP  RH WIND       PRES   REMARKS
BURLINGTON     CLOUDY    74  39  28 W7        30.20F
FAIRFIELD *    SUNNY     75  36  23 CALM      30.20F
FORT MADISON * SUNNY     75  37  25 W6        30.21F
KEOKUK *       SUNNY     73  41  31 NW9       30.20F
OSKALOOSA *      N/A     75  28  17 W5        30.20F
CENTERVILLE *  SUNNY     73  73 100 S8        30.22F
OTTUMWA        PTSUNNY   75  41  29 NW7       30.20F
WASHINGTON *   SUNNY     75  36  23 SE7       30.21F
$$

ABBREVIATIONS USED IN REMARKS
   TC - TEMPERATURES IN CELSIUS
  WCI - WIND CHILL INDEX
   HX - HEAT INDEX
  VSB - VISIBILITY
$$



USA.gov is the U.S. government's official web portal to all federal, state and local government web resources and services.